{"data":{"norad_id":64866,"intl_designator":"2025-153A","name":"O3B MPOWER F9","alt_names":[],"object_type":"PAYLOAD","status":"ACTIVE","operator":null,"country":"O3B","launch_date":"2025-07-22","launch_site_code":"AFETR","launch_vehicle":null,"mission":null,"orbit_class":"UNKNOWN","rcs_meters":null,"size_class":null,"mass_kg":null,"dimensions":null,"purposes":["comms"],"wikipedia_slug":null,"has_3d_model":false,"image_url":null,"decayed_at":null,"tle_current":{"epoch":"2026-05-24T23:43:33.492576Z","epoch_age_seconds":73093,"freshness":"FRESH","line1":"1 64866U 25153A   26144.98858209 -.00000024  00000+0  00000+0 0  9997","line2":"2 64866   0.0568  13.0056 0006045  73.7923 273.2706  5.00115909 18402","mean_motion":5.00115909,"eccentricity":0.0006045,"inclination_deg":0.0568,"raan_deg":13.0056,"arg_perigee_deg":73.7923,"mean_anomaly_deg":273.2706,"bstar":0,"rev_number":1840,"period_min":287.93325188941,"perigee_km":8057.15093361,"apogee_km":8074.6137529961,"semimajor_km":14444.019343303,"source":"CELESTRAK","updated_at":"2026-05-25T13:38:14.521423Z"}}}